Time,TemperatureF,DewpointF,PressureIn,WindDirection,WindDirectionDegrees,WindSpeedMPH,WindSpeedGustMPH,Humidity,HourlyPrecipIn,Conditions,Clouds,dailyrainin,SoftwareType,DateUTC
2013-06-08 00:00:00,31.8,15.7,-100.00,NE,45,0.0,1.0,51,0.10,n/a,n/a,-99.99,Henriksen +1-Wire,2013-06-08 04:00:00,
2013-06-08 00:10:00,31.8,15.7,-100.00,NE,45,0.1,2.0,51,0.10,n/a,n/a,-99.99,Henriksen +1-Wire,2013-06-08 04:10:00,
2013-06-08 00:20:00,31.8,15.7,-100.00,ENE,61,0.0,2.0,51,0.14,n/a,n/a,-99.99,Henriksen +1-Wire,2013-06-08 04:20:00,
2013-06-08 00:30:00,31.8,15.7,-100.00,East,89,0.0,1.0,51,0.15,n/a,n/a,-99.99,Henriksen +1-Wire,2013-06-08 04:30:00,
2013-06-08 00:40:00,31.8,15.7,-100.00,ENE,67,0.7,3.9,51,0.11,n/a,n/a,-99.99,Henriksen +1-Wire,2013-06-08 04:40:00,
2013-06-08 00:50:00,31.8,15.7,-100.00,ENE,68,0.0,3.1,51,0.10,n/a,n/a,-99.99,Henriksen +1-Wire,2013-06-08 04:50:00,
2013-06-08 01:00:00,31.8,15.7,-100.00,ENE,77,0.0,2.9,51,0.10,n/a,n/a,-99.99,Henriksen +1-Wire,2013-06-08 05:00:00,
2013-06-08 01:10:00,31.8,15.7,-100.00,ENE,76,0.2,4.8,51,0.13,n/a,n/a,-99.99,Henriksen +1-Wire,2013-06-08 05:10:00,
2013-06-08 01:20:00,31.8,15.7,-100.00,East,88,0.1,5.8,51,0.10,n/a,n/a,-99.99,Henriksen +1-Wire,2013-06-08 05:20:00,
2013-06-08 01:30:00,31.8,15.7,-100.00,East,85,0.7,4.4,51,0.09,n/a,n/a,-99.99,Henriksen +1-Wire,2013-06-08 05:30:00,
2013-06-08 01:40:00,31.8,15.7,-100.00,ENE,78,0.6,3.9,51,0.10,n/a,n/a,-99.99,Henriksen +1-Wire,2013-06-08 05:40:00,
2013-06-08 01:50:00,31.8,15.7,-100.00,ENE,74,1.2,4.9,51,0.09,n/a,n/a,-99.99,Henriksen +1-Wire,2013-06-08 05:50:00,
2013-06-08 02:00:00,31.8,15.7,-100.00,NE,46,0.3,2.9,51,0.12,n/a,n/a,-99.99,Henriksen +1-Wire,2013-06-08 06:00:00,
2013-06-08 02:10:00,31.8,15.7,-100.00,NE,52,0.4,4.8,51,0.19,n/a,n/a,-99.99,Henriksen +1-Wire,2013-06-08 06:10:00,
2013-06-08 02:20:00,31.8,15.7,-100.00,NE,52,0.0,2.9,51,0.24,n/a,n/a,-99.99,Henriksen +1-Wire,2013-06-08 06:20:00,
2013-06-08 02:30:00,31.8,15.7,-100.00,ENE,75,0.2,2.0,51,0.31,n/a,n/a,-99.99,Henriksen +1-Wire,2013-06-08 06:30:00,
2013-06-08 02:40:00,31.8,15.7,-100.00,East,101,0.1,2.0,51,0.37,n/a,n/a,-99.99,Henriksen +1-Wire,2013-06-08 06:40:00,
2013-06-08 02:50:00,31.8,15.7,-100.00,ENE,78,0.0,3.1,51,0.43,n/a,n/a,-99.99,Henriksen +1-Wire,2013-06-08 06:50:00,
2013-06-08 03:00:00,31.8,15.7,-100.00,ENE,66,0.3,3.1,51,0.42,n/a,n/a,-99.99,Henriksen +1-Wire,2013-06-08 07:00:00,
2013-06-08 03:10:00,31.8,15.7,-100.00,ENE,66,0.0,2.4,51,0.34,n/a,n/a,-99.99,Henriksen +1-Wire,2013-06-08 07:10:00,
2013-06-08 03:20:00,31.8,15.7,-100.00,ENE,69,0.8,4.3,51,0.31,n/a,n/a,-99.99,Henriksen +1-Wire,2013-06-08 07:20:00,
2013-06-08 03:30:00,31.8,15.7,-100.00,ENE,71,0.0,3.3,51,0.25,n/a,n/a,-99.99,Henriksen +1-Wire,2013-06-08 07:30:00,
2013-06-08 03:40:00,31.8,15.7,-100.00,ENE,73,0.2,3.9,51,0.18,n/a,n/a,-99.99,Henriksen +1-Wire,2013-06-08 07:40:00,
2013-06-08 03:50:00,31.8,15.7,-100.00,ENE,69,0.8,4.9,51,0.12,n/a,n/a,-99.99,Henriksen +1-Wire,2013-06-08 07:50:00,
2013-06-08 04:00:00,31.8,15.7,-100.00,NE,51,0.1,2.9,51,0.07,n/a,n/a,-99.99,Henriksen +1-Wire,2013-06-08 08:00:00,
2013-06-08 04:10:00,31.8,15.7,-100.00,ENE,61,0.3,4.8,51,0.04,n/a,n/a,-99.99,Henriksen +1-Wire,2013-06-08 08:10:00,
2013-06-08 04:20:00,31.8,15.7,-100.00,ENE,70,0.9,5.8,51,0.06,n/a,n/a,-99.99,Henriksen +1-Wire,2013-06-08 08:20:00,
2013-06-08 04:30:00,31.8,15.7,-100.00,ENE,70,0.2,5.4,51,0.04,n/a,n/a,-99.99,Henriksen +1-Wire,2013-06-08 08:30:00,
2013-06-08 04:40:00,31.8,15.7,-100.00,ENE,60,0.3,4.9,51,0.04,n/a,n/a,-99.99,Henriksen +1-Wire,2013-06-08 08:40:00,
2013-06-08 04:50:00,31.8,15.7,-100.00,ENE,57,1.3,5.8,51,0.04,n/a,n/a,-99.99,Henriksen +1-Wire,2013-06-08 08:50:00,
2013-06-08 05:00:00,31.8,15.7,-100.00,ENE,59,0.1,2.9,51,0.04,n/a,n/a,-99.99,Henriksen +1-Wire,2013-06-08 09:00:00,
2013-06-08 05:10:00,31.8,15.7,-100.00,ENE,69,0.4,3.9,51,0.02,n/a,n/a,-99.99,Henriksen +1-Wire,2013-06-08 09:10:00,
2013-06-08 05:20:00,31.8,15.7,-100.00,NE,48,0.5,3.9,51,0.00,n/a,n/a,-99.99,Henriksen +1-Wire,2013-06-08 09:20:00,
2013-06-08 05:30:00,31.8,15.7,-100.00,ENE,69,0.4,3.9,51,0.00,n/a,n/a,-99.99,Henriksen +1-Wire,2013-06-08 09:30:00,
2013-06-08 05:40:00,31.8,15.7,-100.00,ENE,60,0.0,4.9,51,0.00,n/a,n/a,-99.99,Henriksen +1-Wire,2013-06-08 09:40:00,
2013-06-08 05:50:00,31.8,15.7,-100.00,ENE,78,0.1,5.1,51,0.00,n/a,n/a,-99.99,Henriksen +1-Wire,2013-06-08 09:50:00,
2013-06-08 06:00:00,31.8,15.7,-100.00,NE,55,0.2,3.9,51,0.00,n/a,n/a,-99.99,Henriksen +1-Wire,2013-06-08 10:00:00,
2013-06-08 06:10:00,31.8,15.7,-100.00,NE,45,0.2,4.3,51,0.01,n/a,n/a,-99.99,Henriksen +1-Wire,2013-06-08 10:10:00,
2013-06-08 06:20:00,31.8,15.7,-100.00,NE,56,0.7,3.9,51,0.01,n/a,n/a,-99.99,Henriksen +1-Wire,2013-06-08 10:20:00,
2013-06-08 06:30:00,31.8,15.7,-100.00,ENE,63,0.1,2.0,51,0.01,n/a,n/a,-99.99,Henriksen +1-Wire,2013-06-08 10:30:00,
2013-06-08 06:40:00,31.8,15.7,-100.00,ENE,72,0.2,3.9,51,0.01,n/a,n/a,-99.99,Henriksen +1-Wire,2013-06-08 10:40:00,
2013-06-08 06:50:00,31.8,15.7,-100.00,ENE,73,0.2,4.4,51,0.01,n/a,n/a,-99.99,Henriksen +1-Wire,2013-06-08 10:50:00,
2013-06-08 07:00:00,31.8,15.7,-100.00,ENE,73,0.1,7.7,51,0.01,n/a,n/a,-99.99,Henriksen +1-Wire,2013-06-08 11:00:00,
2013-06-08 07:10:00,31.8,15.7,-100.00,ENE,58,0.1,2.2,51,0.00,n/a,n/a,-99.99,Henriksen +1-Wire,2013-06-08 11:10:00,
2013-06-08 07:20:00,31.8,15.7,-100.00,ENE,63,0.1,2.0,51,0.00,n/a,n/a,-99.99,Henriksen +1-Wire,2013-06-08 11:20:00,
2013-06-08 07:30:00,31.8,15.7,-100.00,ENE,78,0.1,3.9,51,0.00,n/a,n/a,-99.99,Henriksen +1-Wire,2013-06-08 11:30:00,
2013-06-08 07:40:00,31.8,15.7,-100.00,ENE,71,0.1,1.1,51,0.00,n/a,n/a,-99.99,Henriksen +1-Wire,2013-06-08 11:40:00,
2013-06-08 07:50:00,31.8,15.7,-100.00,East,91,0.1,2.9,51,0.00,n/a,n/a,-99.99,Henriksen +1-Wire,2013-06-08 11:50:00,
2013-06-08 08:00:00,31.8,15.7,-100.00,NE,48,0.0,1.9,51,0.00,n/a,n/a,-99.99,Henriksen +1-Wire,2013-06-08 12:00:00,
2013-06-08 08:10:00,31.8,15.7,-100.00,ENE,62,0.0,1.1,51,0.00,n/a,n/a,-99.99,Henriksen +1-Wire,2013-06-08 12:10:00,
2013-06-08 08:20:00,31.8,15.7,-100.00,ENE,63,0.0,1.1,51,0.00,n/a,n/a,-99.99,Henriksen +1-Wire,2013-06-08 12:20:00,
2013-06-08 08:30:00,31.8,15.7,-100.00,ENE,69,0.1,2.1,51,0.00,n/a,n/a,-99.99,Henriksen +1-Wire,2013-06-08 12:30:00,
2013-06-08 08:40:00,31.8,15.7,-100.00,ENE,59,0.0,1.1,51,0.00,n/a,n/a,-99.99,Henriksen +1-Wire,2013-06-08 12:40:00,
2013-06-08 08:50:00,31.8,15.7,-100.00,East,90,0.0,1.1,51,0.00,n/a,n/a,-99.99,Henriksen +1-Wire,2013-06-08 12:50:00,
2013-06-08 09:00:00,31.8,15.7,-100.00,NE,51,0.0,1.0,51,0.00,n/a,n/a,-99.99,Henriksen +1-Wire,2013-06-08 13:00:00,
2013-06-08 09:10:00,31.8,15.7,-100.00,East,95,0.1,2.2,51,0.00,n/a,n/a,-99.99,Henriksen +1-Wire,2013-06-08 13:10:00,
2013-06-08 09:20:00,31.8,15.7,-100.00,NE,45,0.1,1.0,51,0.00,n/a,n/a,-99.99,Henriksen +1-Wire,2013-06-08 13:20:00,
2013-06-08 09:30:00,31.8,15.7,-100.00,South,170,0.0,2.0,51,0.00,n/a,n/a,-99.99,Henriksen +1-Wire,2013-06-08 13:30:00,
2013-06-08 09:40:00,31.8,15.7,-100.00,SSE,167,0.0,1.1,51,0.00,n/a,n/a,-99.99,Henriksen +1-Wire,2013-06-08 13:40:00,
2013-06-08 09:50:00,31.8,15.7,-100.00,SSE,152,0.8,5.8,51,0.00,n/a,n/a,-99.99,Henriksen +1-Wire,2013-06-08 13:50:00,
2013-06-08 10:00:00,31.8,15.7,-100.00,South,191,0.1,1.9,51,0.00,n/a,n/a,-99.99,Henriksen +1-Wire,2013-06-08 14:00:00,
2013-06-08 10:10:00,31.8,15.7,-100.00,South,188,0.1,6.8,51,0.00,n/a,n/a,-99.99,Henriksen +1-Wire,2013-06-08 14:10:00,
2013-06-08 10:20:00,31.8,15.7,-100.00,SE,132,0.1,4.8,51,0.00,n/a,n/a,-99.99,Henriksen +1-Wire,2013-06-08 14:20:00,
2013-06-08 10:30:00,31.8,15.7,-100.00,ENE,75,0.4,4.8,51,0.00,n/a,n/a,-99.99,Henriksen +1-Wire,2013-06-08 14:30:00,
2013-06-08 10:40:00,31.8,15.7,-100.00,South,191,0.4,2.9,51,0.00,n/a,n/a,-99.99,Henriksen +1-Wire,2013-06-08 14:40:00,
2013-06-08 10:50:00,31.8,15.7,-100.00,SSW,198,0.5,5.8,51,0.00,n/a,n/a,-99.99,Henriksen +1-Wire,2013-06-08 14:50:00,
2013-06-08 11:00:00,31.8,15.7,-100.00,South,188,1.3,5.8,51,0.00,n/a,n/a,-99.99,Henriksen +1-Wire,2013-06-08 15:00:00,
2013-06-08 11:10:00,31.8,15.7,-100.00,SSE,154,0.0,3.9,51,0.00,n/a,n/a,-99.99,Henriksen +1-Wire,2013-06-08 15:10:00,
2013-06-08 11:20:00,31.8,15.7,-100.00,ESE,122,0.0,4.1,51,0.00,n/a,n/a,-99.99,Henriksen +1-Wire,2013-06-08 15:20:00,
2013-06-08 11:30:00,31.8,15.7,-100.00,East,97,0.2,4.9,51,0.00,n/a,n/a,-99.99,Henriksen +1-Wire,2013-06-08 15:30:00,
2013-06-08 11:40:00,31.8,15.7,-100.00,ESE,119,0.0,0.0,51,0.00,n/a,n/a,-99.99,Henriksen +1-Wire,2013-06-08 15:40:00,
2013-06-08 11:50:00,31.8,15.7,-100.00,South,184,2.3,10.7,51,0.00,n/a,n/a,-99.99,Henriksen +1-Wire,2013-06-08 15:50:00,
2013-06-08 12:00:00,31.8,15.7,-100.00,NE,45,0.3,6.8,51,0.00,n/a,n/a,-99.99,Henriksen +1-Wire,2013-06-08 16:00:00,
2013-06-08 12:10:00,31.8,15.7,-100.00,NE,45,1.4,9.6,51,0.00,n/a,n/a,-99.99,Henriksen +1-Wire,2013-06-08 16:10:00,
2013-06-08 12:20:00,31.8,15.7,-100.00,SE,127,1.9,9.7,51,0.00,n/a,n/a,-99.99,Henriksen +1-Wire,2013-06-08 16:20:00,
2013-06-08 12:30:00,31.8,15.7,-100.00,SSW,205,0.1,6.9,51,0.00,n/a,n/a,-99.99,Henriksen +1-Wire,2013-06-08 16:30:00,
2013-06-08 12:40:00,31.8,15.7,-100.00,SSW,196,2.9,13.5,51,0.00,n/a,n/a,-99.99,Henriksen +1-Wire,2013-06-08 16:40:00,
2013-06-08 12:50:00,31.8,15.7,-100.00,SSW,192,1.4,8.7,51,0.00,n/a,n/a,-99.99,Henriksen +1-Wire,2013-06-08 16:50:00,
2013-06-08 13:00:00,31.8,15.7,-100.00,SSW,199,0.4,7.7,51,0.00,n/a,n/a,-99.99,Henriksen +1-Wire,2013-06-08 17:00:00,
2013-06-08 13:10:00,31.8,15.7,-100.00,East,98,2.7,12.6,51,0.00,n/a,n/a,-99.99,Henriksen +1-Wire,2013-06-08 17:10:00,
2013-06-08 13:20:00,31.8,15.7,-100.00,South,169,1.1,12.6,51,0.00,n/a,n/a,-99.99,Henriksen +1-Wire,2013-06-08 17:20:00,
2013-06-08 13:30:00,31.8,15.7,-100.00,ESE,113,4.8,10.6,51,0.00,n/a,n/a,-99.99,Henriksen +1-Wire,2013-06-08 17:30:00,
2013-06-08 13:40:00,31.8,15.7,-100.00,East,79,0.8,8.3,51,0.00,n/a,n/a,-99.99,Henriksen +1-Wire,2013-06-08 17:40:00,
2013-06-08 13:50:00,31.8,15.7,-100.00,SSE,156,1.4,5.8,51,0.00,n/a,n/a,-99.99,Henriksen +1-Wire,2013-06-08 17:50:00,
2013-06-08 14:00:00,31.8,15.7,-100.00,SSE,148,0.0,2.9,51,0.00,n/a,n/a,-99.99,Henriksen +1-Wire,2013-06-08 18:00:00,
2013-06-08 14:10:00,31.8,15.7,-100.00,South,179,2.2,6.8,51,0.00,n/a,n/a,-99.99,Henriksen +1-Wire,2013-06-08 18:10:00,
2013-06-08 14:20:00,31.8,15.7,-100.00,SSW,212,0.0,4.8,51,0.00,n/a,n/a,-99.99,Henriksen +1-Wire,2013-06-08 18:20:00,
2013-06-08 14:30:00,31.8,15.7,-100.00,ESE,117,0.9,7.8,51,0.00,n/a,n/a,-99.99,Henriksen +1-Wire,2013-06-08 18:30:00,
2013-06-08 14:40:00,31.8,15.7,-100.00,SE,142,0.7,5.7,51,0.00,n/a,n/a,-99.99,Henriksen +1-Wire,2013-06-08 18:40:00,
2013-06-08 14:50:00,31.8,15.7,-100.00,SSW,196,0.0,5.8,51,0.00,n/a,n/a,-99.99,Henriksen +1-Wire,2013-06-08 18:50:00,
2013-06-08 15:00:00,31.8,15.7,-100.00,SSW,206,0.2,6.9,51,0.00,n/a,n/a,-99.99,Henriksen +1-Wire,2013-06-08 19:00:00,
2013-06-08 15:10:00,31.8,15.7,-100.00,ENE,61,0.2,6.8,51,0.00,n/a,n/a,-99.99,Henriksen +1-Wire,2013-06-08 19:10:00,
2013-06-08 15:20:00,31.8,15.7,-100.00,South,187,1.2,7.7,51,0.00,n/a,n/a,-99.99,Henriksen +1-Wire,2013-06-08 19:20:00,
2013-06-08 15:30:00,31.8,15.7,-100.00,NE,45,1.7,4.9,51,0.00,n/a,n/a,-99.99,Henriksen +1-Wire,2013-06-08 19:30:00,
2013-06-08 15:40:00,31.8,15.7,-100.00,SSE,157,0.9,5.8,51,0.00,n/a,n/a,-99.99,Henriksen +1-Wire,2013-06-08 19:40:00,
2013-06-08 15:50:00,31.8,15.7,-100.00,NE,45,0.6,7.7,51,0.00,n/a,n/a,-99.99,Henriksen +1-Wire,2013-06-08 19:50:00,
2013-06-08 16:00:00,31.8,15.7,-100.00,SE,145,0.0,2.9,51,0.00,n/a,n/a,-99.99,Henriksen +1-Wire,2013-06-08 20:00:00,
2013-06-08 16:10:00,31.8,15.7,-100.00,SSW,208,1.5,5.8,51,0.00,n/a,n/a,-99.99,Henriksen +1-Wire,2013-06-08 20:10:00,
2013-06-08 16:20:00,31.8,15.7,-100.00,NE,45,0.0,3.9,51,0.00,n/a,n/a,-99.99,Henriksen +1-Wire,2013-06-08 20:20:00,
2013-06-08 16:30:00,31.8,15.7,-100.00,ENE,58,0.1,2.9,51,0.00,n/a,n/a,-99.99,Henriksen +1-Wire,2013-06-08 20:30:00,
2013-06-08 16:40:00,31.8,15.7,-100.00,NE,45,1.1,3.9,51,0.00,n/a,n/a,-99.99,Henriksen +1-Wire,2013-06-08 20:40:00,
2013-06-08 16:50:00,31.8,15.7,-100.00,East,88,0.5,5.8,51,0.00,n/a,n/a,-99.99,Henriksen +1-Wire,2013-06-08 20:50:00,
2013-06-08 17:00:00,31.8,15.7,-100.00,SSW,210,0.1,7.8,51,0.00,n/a,n/a,-99.99,Henriksen +1-Wire,2013-06-08 21:00:00,
2013-06-08 17:10:00,31.8,15.7,-100.00,South,172,0.0,4.8,51,0.00,n/a,n/a,-99.99,Henriksen +1-Wire,2013-06-08 21:10:00,
2013-06-08 17:20:00,31.8,15.7,-100.00,NE,45,0.0,1.0,51,0.00,n/a,n/a,-99.99,Henriksen +1-Wire,2013-06-08 21:20:00,
2013-06-08 17:30:00,31.8,15.7,-100.00,NE,45,0.0,1.0,51,0.00,n/a,n/a,-99.99,Henriksen +1-Wire,2013-06-08 21:30:00,
2013-06-08 17:40:00,31.8,15.7,-100.00,NE,45,0.0,1.9,51,0.00,n/a,n/a,-99.99,Henriksen +1-Wire,2013-06-08 21:40:00,
2013-06-08 17:50:00,31.8,15.7,-100.00,NE,45,0.0,3.9,51,0.00,n/a,n/a,-99.99,Henriksen +1-Wire,2013-06-08 21:50:00,
2013-06-08 18:00:00,31.8,15.7,-100.00,NE,45,0.0,0.0,51,0.00,n/a,n/a,-99.99,Henriksen +1-Wire,2013-06-08 22:00:00,
2013-06-08 18:10:00,31.8,15.7,-100.00,ENE,75,0.0,3.9,51,0.00,n/a,n/a,-99.99,Henriksen +1-Wire,2013-06-08 22:10:00,
2013-06-08 18:20:00,31.8,15.7,-100.00,ESE,109,0.1,2.0,51,0.00,n/a,n/a,-99.99,Henriksen +1-Wire,2013-06-08 22:20:00,
2013-06-08 18:30:00,31.8,15.7,-100.00,South,187,0.0,2.9,51,0.00,n/a,n/a,-99.99,Henriksen +1-Wire,2013-06-08 22:30:00,
2013-06-08 18:40:00,31.8,15.7,-100.00,South,188,0.0,4.9,51,0.00,n/a,n/a,-99.99,Henriksen +1-Wire,2013-06-08 22:40:00,
2013-06-08 18:50:00,31.8,15.7,-100.00,SE,139,0.0,1.0,51,0.00,n/a,n/a,-99.99,Henriksen +1-Wire,2013-06-08 22:50:00,
2013-06-08 19:00:00,31.8,15.7,-100.00,SSE,155,0.0,2.9,51,0.00,n/a,n/a,-99.99,Henriksen +1-Wire,2013-06-08 23:00:00,
2013-06-08 19:10:00,31.8,15.7,-100.00,NE,45,0.1,2.0,51,0.00,n/a,n/a,-99.99,Henriksen +1-Wire,2013-06-08 23:10:00,
2013-06-08 19:20:00,31.8,15.7,-100.00,South,176,0.1,1.0,51,0.00,n/a,n/a,-99.99,Henriksen +1-Wire,2013-06-08 23:20:00,
2013-06-08 19:30:00,31.8,15.7,-100.00,East,93,0.2,2.9,51,0.00,n/a,n/a,-99.99,Henriksen +1-Wire,2013-06-08 23:30:00,
2013-06-08 19:40:00,31.8,15.7,-100.00,NE,45,0.0,1.0,51,0.00,n/a,n/a,-99.99,Henriksen +1-Wire,2013-06-08 23:40:00,
2013-06-08 19:50:00,31.8,15.7,-100.00,NE,45,0.0,1.0,51,0.00,n/a,n/a,-99.99,Henriksen +1-Wire,2013-06-08 23:50:00,
2013-06-08 20:00:00,31.8,15.7,-100.00,NE,45,0.0,0.0,51,0.00,n/a,n/a,-99.99,Henriksen +1-Wire,2013-06-09 00:00:00,
2013-06-08 20:10:00,31.8,15.7,-100.00,NE,45,0.0,0.0,51,0.00,n/a,n/a,-99.99,Henriksen +1-Wire,2013-06-09 00:10:00,
2013-06-08 20:20:00,31.8,15.7,-100.00,NE,45,0.0,0.0,51,0.00,n/a,n/a,-99.99,Henriksen +1-Wire,2013-06-09 00:20:00,
2013-06-08 20:30:00,31.8,15.7,-100.00,NE,45,0.0,0.0,51,0.00,n/a,n/a,-99.99,Henriksen +1-Wire,2013-06-09 00:30:00,
2013-06-08 20:40:00,31.8,15.7,-100.00,NE,45,0.0,0.0,51,0.00,n/a,n/a,-99.99,Henriksen +1-Wire,2013-06-09 00:40:00,
2013-06-08 20:50:00,31.8,15.7,-100.00,NE,45,0.0,0.0,51,0.00,n/a,n/a,-99.99,Henriksen +1-Wire,2013-06-09 00:50:00,
2013-06-08 21:00:00,31.8,15.7,-100.00,NE,45,0.0,0.0,51,0.00,n/a,n/a,-99.99,Henriksen +1-Wire,2013-06-09 01:00:00,
2013-06-08 21:10:00,31.8,15.7,-100.00,NE,45,0.0,0.0,51,0.00,n/a,n/a,-99.99,Henriksen +1-Wire,2013-06-09 01:10:00,
2013-06-08 21:20:00,31.8,15.7,-100.00,NE,45,0.0,0.0,51,0.00,n/a,n/a,-99.99,Henriksen +1-Wire,2013-06-09 01:20:00,
2013-06-08 21:30:00,31.8,15.7,-100.00,NE,45,0.0,0.0,51,0.00,n/a,n/a,-99.99,Henriksen +1-Wire,2013-06-09 01:30:00,
2013-06-08 21:40:00,31.8,15.7,-100.00,NE,45,0.0,0.0,51,0.00,n/a,n/a,-99.99,Henriksen +1-Wire,2013-06-09 01:40:00,
2013-06-08 21:50:00,31.8,15.7,-100.00,NE,45,0.0,0.0,51,0.00,n/a,n/a,-99.99,Henriksen +1-Wire,2013-06-09 01:50:00,
2013-06-08 22:00:00,31.8,15.7,-100.00,NE,45,0.0,1.0,51,0.00,n/a,n/a,-99.99,Henriksen +1-Wire,2013-06-09 02:00:00,
2013-06-08 22:10:00,31.8,15.7,-100.00,NE,45,0.0,1.0,51,0.00,n/a,n/a,-99.99,Henriksen +1-Wire,2013-06-09 02:10:00,
2013-06-08 22:20:00,31.8,15.7,-100.00,NE,45,0.0,0.0,51,0.00,n/a,n/a,-99.99,Henriksen +1-Wire,2013-06-09 02:20:00,
2013-06-08 22:30:00,31.8,15.7,-100.00,NE,45,0.0,1.0,51,0.00,n/a,n/a,-99.99,Henriksen +1-Wire,2013-06-09 02:30:00,
2013-06-08 22:40:00,31.8,15.7,-100.00,NE,45,0.0,0.0,51,0.00,n/a,n/a,-99.99,Henriksen +1-Wire,2013-06-09 02:40:00,
2013-06-08 22:50:00,31.8,15.7,-100.00,NE,45,0.0,0.0,51,0.00,n/a,n/a,-99.99,Henriksen +1-Wire,2013-06-09 02:50:00,
2013-06-08 23:00:00,31.8,15.7,-100.00,NE,53,0.0,1.1,51,0.00,n/a,n/a,-99.99,Henriksen +1-Wire,2013-06-09 03:00:00,
2013-06-08 23:10:00,31.8,15.7,-100.00,ENE,64,0.0,0.0,51,0.00,n/a,n/a,-99.99,Henriksen +1-Wire,2013-06-09 03:10:00,
2013-06-08 23:20:00,31.8,15.7,-100.00,NE,45,0.0,0.0,51,0.00,n/a,n/a,-99.99,Henriksen +1-Wire,2013-06-09 03:20:00,
2013-06-08 23:30:00,31.8,15.7,-100.00,ENE,57,0.0,1.0,51,0.00,n/a,n/a,-99.99,Henriksen +1-Wire,2013-06-09 03:30:00,
2013-06-08 23:40:00,31.8,15.7,-100.00,ENE,62,0.0,1.0,51,0.00,n/a,n/a,-99.99,Henriksen +1-Wire,2013-06-09 03:40:00,
2013-06-08 23:50:00,31.8,15.7,-100.00,ENE,62,0.0,1.0,51,0.00,n/a,n/a,-99.99,Henriksen +1-Wire,2013-06-09 03:50:00,